Temperature
20 19 19 21 25 29 30 30 30 30 30 29 28 29 29 28 28 25 21 21 20 20 20 20 20 20 20 20 20 20 20 20 20 20 20 19 19 19 19 19 19 19 19 19 19 19 18 18 18
20 19 21 24 28 30 30 30 30 30 29 28 28 28 28 26 23 21 21 20 20 20 19 19 20 20 19 19 20 20 20 20 20 20 19 19 19 19 19 19 19 19 19 19 19 19 19 18 18
19 20 23 28 30 30 30 30 30 29 28 29 28 27 26 24 22 21 20 20 20 20 19 19 20 19 19 19 19 19 19 19 19 19 19 19 19 19 19 19 19 19 18 18 18 18 18 18 18
20 22 25 29 30 30 29 30 30 30 29 28 29 27 24 20 21 21 20 20 21 19 19 19 20 19 19 19 19 19 19 19 19 19 19 19 19 19 19 19 19 18 18 18 18 18 18 18 18
22 26 29 30 30 30 30 29 29 30 29 28 28 27 23 19 20 20 20 20 20 20 19 19 19 19 19 19 19 19 19 19 19 19 19 19 19 19 18 18 18 18 18 18 18 18 18 18 18
25 28 30 31 30 30 30 29 29 29 28 27 27 27 22 19 19 19 19 20 21 20 20 18 19 19 19 19 19 19 19 19 19 19 19 19 18 18 18 18 18 18 18 18 18 18 18 18 18
26 29 30 30 30 30 29 29 29 29 28 26 26 26 22 19 19 19 19 20 20 20 20 18 18 19 19 19 19 19 19 19 19 19 19 18 18 18 18 18 18 18 18 18 18 18 18 18 18
25 29 30 30 30 30 29 28 28 28 27 25 25 26 24 19 19 19 19 19 19 19 19 19 19 18 18 18 19 19 19 19 19 19 19 19 18 18 18 18 18 18 18 18 18 18 18 18 18
24 28 29 30 29 30 29 29 27 26 25 24 24 24 22 19 19 18 18 19 18 18 18 19 19 18 18 18 18 18 19 19 19 18 19 18 18 18 18 18 18 18 18 18 18 18 18 18 18
26 28 29 30 30 30 28 28 27 27 26 24 22 21 20 19 19 19 19 19 19 18 18 18 18 18 18 18 18 18 18 18 18 18 18 18 18 18 17 17 18 18 18 18 18 18 18 17 17
27 28 29 29 28 28 28 27 27 28 27 25 22 20 20 20 20 20 20 20 19 19 18 18 18 18 18 18 18 18 18 18 18 18 18 18 17 17 17 17 17 17 17 17 17 17 17 17 17
27 28 27 27 27 27 28 27 27 26 25 22 21 20 20 20 20 20 20 20 19 19 18 18 18 18 18 18 18 18 18 18 18 18 18 17 17 17 17 17 17 17 17 17 17 17 17 17 17
27 28 27 27 26 26 26 27 26 23 22 21 20 20 20 20 19 19 19 19 19 18 18 18 18 18 18 18 18 17 17 17 17 17 17 17 17 17 16 16 17 17 16 16 16 16 16 17 17
28 27 26 26 26 26 26 26 25 22 21 20 20 20 19 19 19 19 18 19 18 18 18 18 18 18 18 18 18 17 17 17 17 17 17 16 16 16 16 16 16 16 16 16 16 16 16 16 16
27 27 27 27 26 26 26 26 25 21 21 20 20 19 19 19 18 18 18 18 18 18 18 18 18 18 18 17 17 17 17 17 17 16 16 16 15 15 15 15 15 15 15 15 15 15 15 16 16
28 28 28 27 27 26 27 26 23 21 21 21 20 19 18 18 18 18 18 18 18 17 17 17 17 18 18 17 17 17 16 16 16 15 15 15 15 15 14 14 15 14 14 14 14 15 15 15 15
28 28 28 27 27 27 27 26 23 21 21 21 20 20 19 18 18 17 17 17 17 17 17 17 17 17 17 17 17 16 16 16 15 15 14 14 14 14 14 14 14 14 14 14 14 14 14 14 14
28 28 28 27 27 27 27 26 24 22 22 21 20 20 19 19 18 18 17 17 17 17 17 17 17 17 17 17 16 16 15 15 15 14 14 14 13 13 13 13 13 13 13 13 13 13 13 14 14
28 28 27 27 26 26 26 25 24 22 21 21 20 20 19 19 19 18 18 17 17 17 17 17 17 17 17 16 16 15 15 15 14 14 13 13 13 12 12 12 12 12 13 13 13 13 13 13 14
28 27 27 26 25 25 25 25 24 22 21 21 21 20 20 19 19 18 18 18 17 17 17 17 17 17 16 16 16 15 15 14 14 13 13 12 12 12 12 12 12 12 12 12 12 12 13 13 13
28 27 27 26 25 25 25 24 23 23 22 21 21 20 20 20 20 19 18 18 18 17 17 17 17 16 16 16 15 15 14 14 14 13 13 12 12 12 11 11 11 11 12 12 12 12 12 13 13
28 27 27 26 26 26 25 25 24 24 23 22 21 21 21 20 20 20 19 19 18 18 18 17 17 16 16 16 15 15 14 14 14 13 13 12 11 11 11 11 11 11 11 11 11 12 12 12 13
27 27 27 26 26 26 26 26 25 24 24 23 23 22 22 21 21 20 20 19 19 18 18 17 17 16 16 15 15 14 14 14 13 13 12 11 12 11 11 10 10 10 11 11 11 11 11 11 12
26 26 26 27 27 26 25 25 25 25 25 25 24 23 22 22 21 21 20 19 19 18 18 17 17 16 16 15 14 14 13 13 12 12 12 12 12 11 11 10 10 10 10 10 10 10 11 11 11
27 27 26 26 26 26 25 25 25 26 25 25 25 24 23 22 21 21 20 20 19 18 18 17 16 16 15 15 14 13 13 12 12 12 12 11 12 12 11 10 10 10 10 9 10 10 10 10 10
28 28 26 25 26 26 25 26 26 26 25 24 24 24 23 22 22 21 21 20 19 18 17 17 16 15 15 14 14 13 12 12 12 12 11 11 11 11 10 10 10 9 9 9 9 10 10 10 10
28 28 28 27 27 26 26 26 27 26 26 25 25 24 24 23 22 21 20 20 19 18 17 17 16 15 14 14 13 12 12 12 11 11 11 11 11 11 10 10 9 9 9 9 9 9 9 9 9
28 28 27 27 25 26 26 26 27 26 26 26 26 25 24 23 22 21 20 19 19 18 17 16 16 15 14 13 13 13 12 11 11 11 11 10 10 10 10 9 9 9 9 9 9 9 9 9 9
27 27 27 28 27 26 26 27 28 27 27 27 26 25 24 23 23 21 20 19 18 18 17 16 15 14 14 13 12 12 12 11 11 11 10 10 10 10 10 9 9 9 9 9 9 9 9 9 9
28 28 27 26 26 26 26 27 28 28 28 27 27 26 24 23 22 21 20 19 18 17 17 16 15 14 14 13 12 12 11 11 11 11 10 10 10 10 9 9 9 9 9 9 9 9 9 9 9
Wind_Speed
15 12 7 4 5 4 3 5 3 4 5 8 7 5 7 8 5 6 8 13 15 16 17 17 13 12 12 11 12 12 13 12 12 12 12 11 10 9 8 7 6 5 5 4 3 3 4 4 5
13 9 6 5 5 1 5 5 5 6 6 5 7 8 9 9 8 8 9 13 16 16 17 16 15 13 12 11 11 12 12 12 11 11 10 9 9 8 7 6 6 5 5 4 3 3 3 4 5
11 8 5 4 3 2 3 4 4 5 4 3 5 7 6 7 6 6 10 16 16 15 15 16 15 13 12 11 11 11 11 11 10 10 9 8 7 7 6 6 6 5 5 5 4 4 4 4 4
7 6 5 7 3 3 3 3 1 5 6 5 6 9 7 7 4 7 14 16 16 14 15 16 14 13 12 11 11 11 10 10 10 9 8 7 7 6 6 6 6 6 5 5 5 5 5 5 5
6 5 7 7 2 2 2 2 3 4 5 6 6 9 7 6 8 11 13 14 15 14 14 16 13 12 11 10 10 10 9 9 9 8 7 7 7 6 6 7 7 7 6 6 6 6 6 6 6
5 5 9 6 2 2 4 3 5 7 8 8 8 9 6 6 9 10 11 12 13 13 12 15 12 11 10 9 9 8 8 8 7 7 7 6 6 7 7 7 7 8 8 8 7 7 7 7 7
7 7 8 6 2 3 4 3 5 7 8 6 5 7 7 8 8 9 10 10 11 11 11 11 13 12 10 8 7 7 6 6 5 5 5 5 5 6 7 7 8 8 9 9 8 9 8 9 9
5 6 9 7 4 3 4 4 4 4 7 6 3 5 8 10 10 10 10 10 9 8 8 8 8 8 9 10 8 5 5 4 4 4 4 5 7 9 9 10 10 9 9 9 9 10 10 10 11
5 8 9 5 3 2 3 4 4 4 8 7 6 6 11 14 13 12 11 11 10 8 6 6 7 6 5 5 7 6 6 5 4 5 4 5 7 7 7 8 5 7 9 9 9 10 10 11 13
6 9 5 2 3 2 1 1 4 6 8 9 11 12 14 14 13 13 12 12 11 9 7 5 4 5 4 3 4 3 3 3 2 2 2 4 5 6 7 3 4 7 8 9 10 10 11 13 12
6 7 5 5 5 5 3 2 2 5 6 7 10 13 13 13 11 11 11 10 10 9 6 5 4 3 3 3 2 2 1 1 1 2 3 3 4 5 6 5 5 6 8 8 8 10 11 11 10
6 6 7 7 6 4 3 3 4 3 6 7 10 12 11 11 10 10 10 9 9 7 6 5 4 4 2 2 3 2 2 2 2 2 3 3 3 4 4 5 5 5 5 5 6 7 9 10 10
9 6 5 4 3 2 4 5 5 8 8 9 11 10 9 9 9 8 8 7 7 7 6 6 5 5 4 4 2 3 2 2 2 2 3 4 4 3 4 4 4 6 6 6 6 7 7 8 10
3 3 2 0 3 4 7 7 6 7 8 9 9 9 9 8 8 8 8 8 8 7 7 6 6 5 5 4 3 2 2 2 3 3 4 5 4 3 4 3 3 4 5 5 6 6 6 7 7
4 4 4 3 4 5 7 6 5 7 7 8 7 7 7 7 8 8 8 8 8 7 7 7 7 6 5 5 4 3 2 3 3 4 4 5 5 5 5 4 4 4 5 4 6 6 6 7 8
6 7 5 5 3 4 7 5 9 7 7 7 7 7 7 6 7 7 7 7 7 7 7 6 6 7 6 4 3 3 3 4 3 4 4 5 5 5 6 5 5 5 6 5 5 6 6 6 7
7 5 2 6 3 4 6 3 9 7 7 7 7 7 6 7 7 7 7 7 7 7 6 6 5 5 5 4 3 3 2 3 3 4 5 5 5 6 7 6 5 6 6 6 6 5 6 7 7
2 3 2 3 4 5 6 4 8 8 7 7 7 7 7 7 8 8 7 7 7 6 6 5 5 4 4 3 2 1 0 1 3 3 4 5 6 6 7 6 5 7 6 6 5 6 6 7 7
5 5 2 2 2 5 6 5 7 8 7 7 7 7 7 7 8 8 8 8 7 7 7 6 6 5 4 3 3 2 2 3 3 4 4 5 6 6 6 7 5 6 7 7 8 7 8 7 6
4 4 2 4 3 3 3 4 6 7 8 7 8 8 8 8 9 9 9 9 8 8 8 8 8 7 6 4 3 2 4 4 4 4 3 5 5 6 7 6 8 7 7 7 7 7 8 8 6
4 4 2 4 5 4 4 6 7 7 8 8 9 9 10 10 10 11 11 10 10 10 10 9 8 7 7 5 5 4 4 5 5 4 4 4 6 6 7 7 8 7 9 7 7 8 9 8 7
2 1 2 5 6 2 3 3 6 8 9 10 11 12 12 12 11 11 11 11 11 11 10 10 9 8 7 7 7 7 7 7 7 6 5 6 6 6 7 7 7 7 8 7 8 7 7 8 9
2 2 3 5 4 3 2 3 4 6 8 11 13 13 13 12 11 11 11 11 10 9 9 8 8 8 7 7 6 7 8 7 6 6 6 7 6 6 6 6 7 7 7 7 8 8 8 8 9
6 5 5 6 6 2 2 3 2 5 6 10 12 13 12 11 11 11 10 9 8 8 7 7 7 6 6 6 5 6 7 7 8 8 8 7 6 5 5 6 6 7 7 7 8 8 9 8 9
6 6 4 3 2 2 2 3 2 5 6 7 10 12 12 11 10 10 10 9 9 8 7 6 5 5 5 5 5 5 6 7 8 8 7 7 7 6 5 6 6 7 7 8 8 8 9 9 9
3 5 5 5 5 2 3 1 4 6 6 7 8 10 10 10 9 9 8 8 7 7 6 5 5 4 4 4 4 5 6 7 7 6 8 8 8 8 7 8 8 8 8 9 8 9 9 8 9
3 3 4 4 3 3 2 1 4 7 8 9 10 10 10 9 8 8 8 7 7 6 6 5 5 4 4 4 5 6 6 7 7 8 9 8 7 8 8 9 9 9 9 9 9 9 9 9 10
3 2 3 4 5 3 1 0 2 7 10 11 11 11 10 10 9 9 8 8 7 7 6 5 5 5 5 5 6 6 6 7 8 9 9 10 10 10 10 10 10 10 10 10 10 11 10 10 10
4 4 4 4 4 6 4 2 3 5 8 10 11 11 10 11 10 10 9 8 8 7 6 6 5 6 6 6 6 7 7 8 8 9 9 9 10 10 10 11 11 11 11 10 10 11 11 11 12
5 3 4 5 4 4 6 2 7 5 6 8 8 9 9 10 10 10 9 9 8 7 7 6 6 6 6 6 6 7 7 8 9 10 9 9 10 11 11 11 12 12 12 11 11 12 12 12 13
Wind_Direction
171 183 201 224 241 223 71 60 31 43 61 56 56 59 64 47 30 80 115 139 141 143 140 146 144 143 139 134 130 129 129 130 131 133 137 141 144 149 154 158 162 166 163 149 136 125 121 121 120
172 179 207 236 262 172 92 59 56 62 81 88 77 77 79 69 61 97 129 140 147 144 145 149 141 145 142 139 135 131 129 128 128 130 133 137 143 150 158 166 175 182 177 169 162 149 141 137 137
169 199 240 247 261 349 51 52 66 98 101 91 86 67 66 65 77 106 132 147 150 143 143 137 145 147 146 142 139 137 134 133 133 135 139 145 152 160 170 181 190 195 194 190 186 176 167 162 155
180 211 233 249 253 40 357 357 116 147 113 88 107 93 83 41 37 110 137 151 148 146 150 139 149 148 148 147 146 144 143 143 143 145 149 156 165 176 187 196 205 210 210 208 203 195 188 184 179
227 244 240 233 242 43 17 350 185 161 112 96 103 102 86 51 76 115 141 151 152 154 148 141 148 149 150 151 151 151 151 152 153 156 163 173 184 195 205 212 218 223 224 220 218 213 203 200 199
225 244 248 235 159 73 69 96 139 128 111 98 101 107 85 92 101 121 140 154 154 152 148 136 142 149 152 154 155 156 158 162 164 169 179 192 204 215 223 228 232 236 236 234 229 223 214 209 208
258 254 255 252 215 127 72 93 121 135 117 96 107 113 117 112 113 126 137 148 152 153 147 150 158 157 158 158 162 163 165 168 172 182 196 213 224 231 236 239 241 244 245 243 239 232 224 216 214
273 262 243 230 225 126 95 113 89 108 104 96 102 125 135 132 130 129 135 143 145 148 147 151 161 156 168 167 160 165 169 173 184 203 222 243 244 239 238 241 233 245 251 250 247 242 235 225 220
257 250 240 223 223 123 101 121 104 104 114 101 84 87 115 129 135 137 139 145 148 150 155 164 158 158 174 170 149 175 177 187 213 216 220 251 264 263 243 251 251 257 261 259 254 250 246 237 227
236 248 246 313 303 318 48 101 129 146 129 113 104 104 122 137 146 150 152 156 159 161 163 162 163 164 174 165 150 175 195 171 234 293 288 279 287 291 285 283 263 263 266 261 250 250 247 238 233
236 261 301 299 300 292 245 178 169 175 140 130 134 135 140 145 152 154 154 158 157 157 158 162 165 170 172 158 138 102 66 52 351 351 327 311 297 281 278 279 257 256 257 262 253 246 248 244 240
247 268 284 293 306 275 233 176 131 81 89 107 131 138 143 149 151 154 154 154 150 151 150 146 145 143 131 107 92 82 72 51 27 37 345 327 310 302 304 294 296 283 274 272 274 266 258 258 254
240 269 293 298 275 216 181 151 115 97 99 114 127 136 141 146 147 145 143 148 152 150 143 135 139 135 132 120 97 83 68 42 59 12 357 335 324 318 310 296 297 294 293 279 275 273 272 265 255
270 259 270 188 138 154 153 137 129 110 120 126 132 138 143 150 150 147 149 151 150 144 136 133 138 137 133 123 108 96 77 59 28 26 10 346 334 333 317 295 304 299 293 302 296 289 281 272 267
246 222 175 146 149 155 165 150 116 126 138 136 136 135 139 145 151 156 153 153 149 142 136 136 135 130 125 118 110 96 70 43 29 27 15 356 343 341 317 308 289 299 297 294 287 290 281 271 268
218 220 190 135 163 172 227 172 126 145 154 149 146 144 147 147 152 151 153 151 145 139 134 136 131 125 121 108 100 88 54 41 25 10 4 1 348 332 311 303 298 309 291 285 285 276 286 283 280
211 226 189 144 171 193 234 155 141 160 169 164 161 155 151 149 150 152 156 153 147 144 144 142 130 137 129 120 115 90 72 32 6 357 357 357 335 327 307 303 312 293 286 285 288 296 295 290 287
307 273 231 179 170 212 222 168 153 171 183 175 166 160 158 162 161 159 160 159 157 156 159 160 160 157 162 162 167 181 38 346 340 341 358 339 329 330 318 298 305 298 290 288 290 295 283 287 287
305 284 257 138 167 226 224 191 170 179 194 187 178 168 165 170 163 164 169 173 175 179 182 187 192 182 198 213 244 266 293 309 318 324 350 329 330 329 314 307 309 293 294 299 293 290 283 278 292
254 253 191 144 170 231 204 186 176 185 193 191 183 176 175 177 174 180 187 190 198 201 205 207 210 210 220 222 252 276 302 300 312 319 324 319 324 318 308 315 300 298 299 283 283 281 289 289 287
247 276 228 180 172 196 212 197 185 187 191 189 190 188 190 190 190 194 200 205 211 215 216 221 221 222 230 234 244 252 254 267 282 305 307 322 316 310 311 306 302 305 292 291 295 285 275 285 286
281 9 212 189 208 182 243 266 168 184 191 196 196 195 198 200 203 206 208 213 219 222 222 223 226 228 229 233 252 272 288 299 311 307 313 312 299 301 300 300 299 297 295 297 283 280 283 275 278
44 130 189 206 231 232 241 297 127 173 192 196 196 197 200 203 209 215 217 221 225 225 224 223 223 228 231 240 250 261 278 294 298 304 300 297 297 293 294 297 296 292 289 299 300 295 281 277 276
145 166 180 212 232 253 22 308 130 158 179 180 187 194 199 207 214 219 221 220 221 220 220 220 218 224 228 235 248 262 284 292 298 298 301 298 299 297 300 297 294 287 292 293 287 287 275 276 282
215 259 253 234 239 58 90 284 80 130 165 178 183 188 195 202 211 214 216 214 213 214 214 213 211 218 223 236 253 265 276 279 275 285 296 299 301 303 313 307 295 292 291 285 284 278 282 278 274
247 295 325 330 347 26 163 308 112 146 165 179 185 186 190 200 206 206 205 202 203 202 199 201 206 220 231 245 257 266 269 274 286 294 300 297 296 304 313 296 288 286 285 283 281 279 273 271 272
243 278 342 298 299 305 69 106 161 170 185 187 187 189 195 198 195 194 189 187 183 183 186 195 203 222 239 256 261 264 269 280 291 293 280 286 293 294 294 291 287 284 282 280 279 275 278 276 271
305 265 260 302 326 326 19 186 134 181 191 191 194 197 197 193 192 187 181 177 175 177 180 193 208 228 248 258 266 272 274 275 280 286 296 295 293 291 289 287 286 283 280 276 272 274 268 269 269
187 211 263 289 311 310 324 33 108 186 193 196 199 201 198 195 191 183 178 176 178 182 189 202 215 233 249 263 270 280 281 283 282 281 285 288 290 291 286 285 285 283 280 277 272 272 276 270 269
251 253 247 282 294 283 297 324 136 185 197 206 208 199 196 193 186 179 177 180 188 197 205 214 229 244 256 266 272 276 281 282 283 285 289 289 288 287 288 286 284 282 280 277 273 272 273 271 269
Height
1529 1532 1534 1536 1530 1517 1512 1510 1507 1506 1507 1511 1511 1510 1510 1514 1517 1528 1533 1534 1536 1539 1540 1541 1544 1547 1549 1551 1553 1554 1556 1557 1559 1560 1561 1562 1563 1563 1564 1564 1565 1565 1565 1566 1566 1566 1567 1567 1567
1531 1533 1536 1533 1519 1513 1513 1508 1508 1509 1511 1513 1513 1514 1515 1521 1527 1530 1533 1535 1538 1541 1543 1544 1546 1548 1550 1553 1554 1556 1557 1559 1560 1561 1562 1563 1563 1564 1565 1565 1566 1566 1566 1567 1567 1567 1568 1568 1568
1532 1534 1534 1523 1513 1513 1512 1508 1509 1512 1513 1514 1515 1518 1520 1527 1531 1533 1534 1537 1541 1543 1545 1545 1547 1550 1552 1554 1556 1557 1559 1560 1561 1562 1563 1563 1564 1565 1565 1566 1566 1567 1567 1568 1568 1568 1569 1569 1569
1534 1535 1531 1519 1511 1510 1511 1509 1510 1511 1513 1515 1516 1520 1527 1532 1533 1534 1535 1539 1543 1544 1547 1547 1549 1551 1553 1555 1557 1558 1560 1561 1562 1563 1564 1564 1565 1565 1566 1566 1567 1567 1568 1568 1568 1569 1569 1569 1570
1534 1530 1519 1512 1509 1509 1509 1510 1510 1510 1513 1517 1517 1522 1530 1533 1533 1535 1538 1541 1544 1547 1549 1548 1550 1553 1555 1556 1558 1559 1561 1562 1562 1563 1564 1564 1565 1566 1566 1566 1567 1567 1568 1568 1569 1569 1569 1570 1570
1532 1525 1516 1510 1509 1509 1509 1511 1510 1512 1516 1519 1520 1524 1533 1534 1535 1536 1539 1543 1547 1549 1551 1550 1551 1554 1556 1557 1559 1560 1561 1562 1563 1563 1564 1564 1565 1565 1566 1566 1567 1567 1568 1568 1568 1569 1569 1570 1570
1529 1520 1512 1510 1510 1510 1511 1512 1511 1513 1517 1521 1523 1525 1533 1536 1536 1537 1540 1544 1547 1550 1552 1553 1554 1555 1556 1558 1559 1560 1561 1562 1562 1563 1564 1564 1565 1565 1565 1566 1566 1566 1567 1567 1567 1568 1568 1569 1569
1529 1521 1513 1510 1511 1510 1512 1514 1516 1516 1520 1524 1525 1526 1532 1536 1536 1538 1540 1544 1547 1550 1553 1554 1556 1557 1558 1558 1559 1560 1561 1561 1562 1563 1563 1563 1564 1564 1564 1565 1565 1565 1565 1565 1566 1566 1567 1567 1568
1531 1523 1513 1509 1512 1510 1512 1514 1519 1521 1523 1525 1527 1529 1532 1534 1536 1539 1542 1545 1547 1550 1552 1555 1557 1557 1558 1560 1559 1560 1560 1561 1561 1562 1562 1562 1563 1564 1563 1563 1563 1563 1563 1564 1564 1564 1565 1565 1566
1528 1519 1511 1511 1513 1512 1515 1516 1518 1520 1522 1526 1530 1532 1534 1536 1539 1541 1544 1546 1549 1550 1552 1554 1556 1557 1558 1559 1559 1560 1561 1560 1561 1561 1560 1560 1561 1561 1562 1561 1561 1561 1561 1561 1561 1562 1562 1562 1563
1524 1518 1514 1515 1516 1516 1516 1518 1519 1518 1520 1526 1530 1533 1535 1538 1540 1543 1545 1548 1550 1551 1552 1553 1555 1556 1558 1558 1559 1559 1559 1559 1560 1559 1558 1558 1559 1559 1559 1559 1559 1558 1558 1559 1559 1559 1559 1560 1561
1523 1519 1519 1518 1517 1517 1517 1518 1520 1521 1525 1529 1532 1534 1536 1539 1541 1543 1546 1548 1550 1551 1552 1553 1554 1555 1556 1557 1557 1558 1558 1558 1559 1557 1557 1557 1557 1556 1557 1556 1556 1556 1556 1555 1555 1555 1556 1555 1556
1521 1519 1518 1518 1517 1517 1518 1519 1522 1528 1530 1532 1534 1536 1538 1540 1542 1544 1546 1548 1550 1551 1552 1553 1553 1554 1555 1556 1557 1558 1558 1558 1557 1556 1555 1554 1554 1554 1554 1553 1552 1553 1552 1552 1552 1552 1552 1551 1552
1518 1518 1518 1518 1517 1518 1519 1522 1525 1531 1533 1534 1536 1537 1539 1541 1543 1544 1546 1548 1550 1551 1552 1553 1553 1554 1555 1556 1557 1557 1557 1556 1556 1555 1554 1553 1552 1552 1551 1551 1549 1549 1549 1549 1548 1548 1548 1548 1548
1519 1517 1516 1517 1518 1519 1520 1522 1526 1532 1534 1536 1537 1539 1540 1541 1543 1545 1547 1548 1550 1551 1552 1553 1554 1554 1555 1556 1557 1557 1557 1556 1555 1554 1552 1551 1551 1549 1549 1548 1548 1547 1547 1545 1545 1545 1545 1544 1544
1515 1512 1512 1516 1518 1520 1520 1521 1530 1533 1535 1536 1538 1539 1541 1542 1544 1545 1547 1549 1550 1551 1552 1553 1555 1555 1556 1556 1556 1557 1557 1555 1554 1553 1551 1550 1548 1547 1546 1546 1546 1545 1544 1544 1543 1543 1542 1541 1540
1510 1510 1511 1516 1518 1518 1517 1519 1529 1533 1534 1536 1538 1539 1541 1543 1544 1546 1547 1549 1550 1551 1552 1553 1554 1555 1556 1556 1556 1556 1555 1554 1553 1552 1550 1548 1547 1545 1544 1544 1543 1542 1542 1542 1541 1541 1539 1538 1537
1512 1509 1512 1514 1516 1517 1517 1519 1528 1532 1533 1535 1537 1539 1541 1543 1545 1546 1547 1549 1550 1551 1552 1553 1554 1555 1555 1556 1555 1555 1554 1553 1552 1550 1548 1546 1545 1543 1542 1542 1540 1540 1539 1539 1538 1537 1536 1535 1533
1509 1510 1512 1515 1517 1517 1517 1520 1526 1531 1533 1535 1537 1539 1541 1543 1545 1546 1548 1549 1550 1551 1552 1553 1554 1554 1554 1555 1555 1555 1554 1552 1551 1549 1546 1544 1542 1541 1539 1539 1538 1537 1537 1535 1535 1534 1533 1532 1531
1510 1511 1513 1517 1518 1518 1518 1521 1525 1529 1531 1534 1536 1538 1540 1542 1544 1546 1547 1549 1550 1550 1551 1552 1552 1553 1553 1553 1553 1552 1551 1550 1549 1547 1544 1542 1540 1538 1538 1536 1535 1535 1533 1532 1531 1530 1530 1530 1529
1508 1509 1511 1515 1518 1517 1519 1522 1524 1526 1530 1532 1534 1536 1539 1541 1542 1545 1546 1548 1549 1549 1550 1551 1551 1551 1551 1551 1551 1550 1548 1547 1547 1545 1543 1540 1538 1536 1534 1533 1532 1531 1530 1530 1528 1527 1527 1527 1526
1508 1507 1509 1513 1516 1516 1518 1522 1520 1521 1526 1529 1532 1534 1537 1539 1541 1543 1545 1546 1547 1548 1549 1549 1549 1549 1548 1548 1548 1548 1547 1546 1544 1542 1540 1537 1535 1534 1532 1530 1529 1527 1527 1526 1525 1525 1524 1523 1523
1509 1508 1509 1510 1511 1514 1514 1517 1518 1518 1521 1523 1527 1530 1533 1536 1538 1540 1542 1544 1545 1546 1546 1547 1546 1546 1546 1545 1545 1544 1543 1542 1541 1539 1537 1535 1534 1531 1529 1527 1526 1524 1524 1523 1521 1520 1520 1520 1520
1510 1510 1510 1508 1505 1519 1518 1519 1519 1514 1516 1518 1522 1527 1530 1533 1536 1538 1539 1541 1542 1543 1543 1544 1543 1543 1543 1542 1542 1540 1539 1538 1537 1535 1534 1533 1532 1529 1528 1525 1523 1521 1521 1519 1518 1517 1517 1516 1515
1508 1509 1515 1517 1517 1519 1516 1516 1515 1510 1512 1515 1519 1523 1527 1530 1533 1535 1536 1538 1539 1540 1541 1541 1541 1540 1540 1539 1539 1537 1536 1534 1533 1532 1532 1530 1529 1527 1525 1523 1520 1518 1517 1515 1514 1513 1513 1512 1511
1504 1505 1518 1527 1522 1514 1514 1514 1509 1508 1513 1516 1518 1521 1525 1528 1530 1531 1533 1535 1536 1537 1538 1538 1538 1538 1537 1537 1535 1534 1532 1532 1532 1530 1528 1527 1525 1524 1521 1518 1516 1515 1513 1512 1511 1510 1509 1508 1507
1504 1501 1500 1508 1511 1514 1510 1509 1505 1508 1510 1513 1516 1518 1521 1524 1526 1529 1530 1532 1533 1534 1535 1536 1536 1535 1534 1534 1532 1530 1530 1529 1528 1526 1524 1524 1522 1520 1518 1515 1513 1511 1509 1508 1506 1506 1504 1504 1502
1501 1501 1504 1508 1521 1522 1514 1510 1506 1505 1506 1508 1511 1514 1518 1521 1524 1526 1528 1530 1531 1532 1532 1533 1532 1532 1531 1530 1529 1529 1527 1525 1524 1523 1521 1519 1517 1515 1513 1511 1509 1507 1505 1504 1502 1501 1500 1499 1498
1506 1505 1504 1503 1508 1518 1519 1509 1494 1498 1500 1503 1507 1511 1514 1517 1520 1523 1525 1527 1528 1529 1530 1530 1529 1528 1528 1527 1525 1524 1523 1522 1521 1519 1517 1515 1513 1511 1509 1507 1505 1503 1501 1499 1498 1497 1496 1494 1493
1497 1499 1503 1511 1512 1509 1510 1506 1491 1494 1497 1500 1503 1507 1511 1515 1518 1520 1522 1524 1525 1526 1527 1527 1526 1526 1525 1523 1522 1521 1520 1518 1517 1516 1514 1511 1509 1507 1505 1502 1500 1498 1497 1495 1493 1492 1491 1490 1488